owner,sensor,date,latitude,longitude,vertical_datum,mass_concentration_of_oxygen_in_sea_water,qcFlag 
DISL,ioos:station:DISL:DISL:1,2017-08-01T00:00:00Z,30.2513,-88.0778,2.091,8.48,1111122 
DISL,ioos:station:DISL:DISL:1,2017-08-01T00:30:00Z,30.2513,-88.0778,2.092,7.63,1111122 
DISL,ioos:station:DISL:DISL:1,2017-08-01T01:00:00Z,30.2513,-88.0778,2.107,7.81,1111122 
DISL,ioos:station:DISL:DISL:1,2017-08-01T01:30:00Z,30.2513,-88.0778,2.108,8.05,1111122 
DISL,ioos:station:DISL:DISL:1,2017-08-01T02:00:00Z,30.2513,-88.0778,2.101,7.82,1111122 
DISL,ioos:station:DISL:DISL:1,2017-08-01T02:30:00Z,30.2513,-88.0778,2.114,7.6,1111122 
DISL,ioos:station:DISL:DISL:1,2017-08-01T03:00:00Z,30.2513,-88.0778,2.118,7.03,1111122 
DISL,ioos:station:DISL:DISL:1,2017-08-01T03:30:00Z,30.2513,-88.0778,2.134,6.41,1111122 
DISL,ioos:station:DISL:DISL:1,2017-08-01T04:00:00Z,30.2513,-88.0778,2.146,6.48,1111122 
DISL,ioos:station:DISL:DISL:1,2017-08-01T04:30:00Z,30.2513,-88.0778,2.153,6.57,1111122 
DISL,ioos:station:DISL:DISL:1,2017-08-01T05:00:00Z,30.2513,-88.0778,2.175,5.8,1111122 
DISL,ioos:station:DISL:DISL:1,2017-08-01T05:30:00Z,30.2513,-88.0778,2.183,4.53,1111122 
DISL,ioos:station:DISL:DISL:1,2017-08-01T06:00:00Z,30.2513,-88.0778,2.208,4.56,1111122 
DISL,ioos:station:DISL:DISL:1,2017-08-01T06:30:00Z,30.2513,-88.0778,2.218,3.74,1111122 
DISL,ioos:station:DISL:DISL:1,2017-08-01T07:00:00Z,30.2513,-88.0778,2.212,2.97,1111122 
DISL,ioos:station:DISL:DISL:1,2017-08-01T07:30:00Z,30.2513,-88.0778,2.237,2.8,1111122 
DISL,ioos:station:DISL:DISL:1,2017-08-01T08:00:00Z,30.2513,-88.0778,2.253,2.82,1111122 
DISL,ioos:station:DISL:DISL:1,2017-08-01T08:30:00Z,30.2513,-88.0778,2.271,2.98,1111122 
DISL,ioos:station:DISL:DISL:1,2017-08-01T09:00:00Z,30.2513,-88.0778,2.289,3.61,1111122 
DISL,ioos:station:DISL:DISL:1,2017-08-01T09:30:00Z,30.2513,-88.0778,2.294,3.7,1111122 
DISL,ioos:station:DISL:DISL:1,2017-08-01T10:00:00Z,30.2513,-88.0778,2.303,3.62,1111122 
DISL,ioos:station:DISL:DISL:1,2017-08-01T10:30:00Z,30.2513,-88.0778,2.305,3.24,1111122 
DISL,ioos:station:DISL:DISL:1,2017-08-01T11:00:00Z,30.2513,-88.0778,2.327,3.42,1111122 
DISL,ioos:station:DISL:DISL:1,2017-08-01T11:30:00Z,30.2513,-88.0778,2.323,3.51,1111122 
DISL,ioos:station:DISL:DISL:1,2017-08-01T12:00:00Z,30.2513,-88.0778,2.335,3.89,1111122 
DISL,ioos:station:DISL:DISL:1,2017-08-01T12:30:00Z,30.2513,-88.0778,2.306,3.73,1111122 
DISL,ioos:station:DISL:DISL:1,2017-08-01T13:00:00Z,30.2513,-88.0778,2.336,3.92,1111122 
DISL,ioos:station:DISL:DISL:1,2017-08-01T13:30:00Z,30.2513,-88.0778,2.334,4.88,1111122 
DISL,ioos:station:DISL:DISL:1,2017-08-01T14:00:00Z,30.2513,-88.0778,2.321,4.8,1111122 
DISL,ioos:station:DISL:DISL:1,2017-08-01T14:30:00Z,30.2513,-88.0778,2.334,7.14,1111122 
DISL,ioos:station:DISL:DISL:1,2017-08-01T15:00:00Z,30.2513,-88.0778,2.321,7.22,1111122 
DISL,ioos:station:DISL:DISL:1,2017-08-01T15:30:00Z,30.2513,-88.0778,2.282,7.39,1111122 
DISL,ioos:station:DISL:DISL:1,2017-08-01T16:00:00Z,30.2513,-88.0778,2.268,8.08,1111122 
DISL,ioos:station:DISL:DISL:1,2017-08-01T16:30:00Z,30.2513,-88.0778,2.255,8.28,1111122 
DISL,ioos:station:DISL:DISL:1,2017-08-01T17:00:00Z,30.2513,-88.0778,2.235,8.28,1111122 
DISL,ioos:station:DISL:DISL:1,2017-08-01T17:30:00Z,30.2513,-88.0778,2.21,8.44,1111122 
DISL,ioos:station:DISL:DISL:1,2017-08-01T18:00:00Z,30.2513,-88.0778,2.182,8.58,1111122 
DISL,ioos:station:DISL:DISL:1,2017-08-01T18:30:00Z,30.2513,-88.0778,2.175,8.67,1111122 
DISL,ioos:station:DISL:DISL:1,2017-08-01T19:00:00Z,30.2513,-88.0778,2.144,8.74,1111122 
DISL,ioos:station:DISL:DISL:1,2017-08-01T19:30:00Z,30.2513,-88.0778,2.125,8.79,1111122 
DISL,ioos:station:DISL:DISL:1,2017-08-01T20:00:00Z,30.2513,-88.0778,2.118,8.96,1111122 
DISL,ioos:station:DISL:DISL:1,2017-08-01T20:30:00Z,30.2513,-88.0778,2.111,8.98,1111122 
DISL,ioos:station:DISL:DISL:1,2017-08-01T21:00:00Z,30.2513,-88.0778,2.097,8.4,1111122 
DISL,ioos:station:DISL:DISL:1,2017-08-01T21:30:00Z,30.2513,-88.0778,2.063,8.36,1111122 
DISL,ioos:station:DISL:DISL:1,2017-08-01T22:00:00Z,30.2513,-88.0778,2.056,8.84,1111122 
DISL,ioos:station:DISL:DISL:1,2017-08-01T22:30:00Z,30.2513,-88.0778,2.047,8.65,1111122 
DISL,ioos:station:DISL:DISL:1,2017-08-01T23:00:00Z,30.2513,-88.0778,2.042,8.35,1111122 
DISL,ioos:station:DISL:DISL:1,2017-08-01T23:30:00Z,30.2513,-88.0778,2.043,8.26,1111122 
DISL,ioos:station:DISL:DISL:1,2017-08-02T00:00:00Z,30.2513,-88.0778,2.041,7.98,1111122 
DISL,ioos:station:DISL:DISL:1,2017-08-02T00:30:00Z,30.2513,-88.0778,2.051,8.28,1111122 
DISL,ioos:station:DISL:DISL:1,2017-08-02T01:00:00Z,30.2513,-88.0778,2.04,8.22,1111122 
DISL,ioos:station:DISL:DISL:1,2017-08-02T01:30:00Z,30.2513,-88.0778,2.059,8.12,1111122 
DISL,ioos:station:DISL:DISL:1,2017-08-02T02:00:00Z,30.2513,-88.0778,2.064,7.92,1111122 
DISL,ioos:station:DISL:DISL:1,2017-08-02T02:30:00Z,30.2513,-88.0778,2.079,7.92,1111122 
DISL,ioos:station:DISL:DISL:1,2017-08-02T03:00:00Z,30.2513,-88.0778,2.089,7.47,1111122 
DISL,ioos:station:DISL:DISL:1,2017-08-02T03:30:00Z,30.2513,-88.0778,2.108,7.43,1111122 
DISL,ioos:station:DISL:DISL:1,2017-08-02T04:00:00Z,30.2513,-88.0778,2.104,7.05,1111122 
DISL,ioos:station:DISL:DISL:1,2017-08-02T04:30:00Z,30.2513,-88.0778,2.124,6.36,1111122 
DISL,ioos:station:DISL:DISL:1,2017-08-02T05:00:00Z,30.2513,-88.0778,2.148,5.9,1111122 
DISL,ioos:station:DISL:DISL:1,2017-08-02T05:30:00Z,30.2513,-88.0778,2.165,5.03,1111122 
DISL,ioos:station:DISL:DISL:1,2017-08-02T06:00:00Z,30.2513,-88.0778,2.19,4.49,1111122 
DISL,ioos:station:DISL:DISL:1,2017-08-02T06:30:00Z,30.2513,-88.0778,2.203,5.01,1111122 
DISL,ioos:station:DISL:DISL:1,2017-08-02T07:00:00Z,30.2513,-88.0778,2.236,3.97,1111122 
DISL,ioos:station:DISL:DISL:1,2017-08-02T07:30:00Z,30.2513,-88.0778,2.251,3.97,1111122 
DISL,ioos:station:DISL:DISL:1,2017-08-02T08:00:00Z,30.2513,-88.0778,2.281,4.09,1111122 
DISL,ioos:station:DISL:DISL:1,2017-08-02T08:30:00Z,30.2513,-88.0778,2.289,4.15,1111122 
DISL,ioos:station:DISL:DISL:1,2017-08-02T09:00:00Z,30.2513,-88.0778,2.319,4.3,1111122 
DISL,ioos:station:DISL:DISL:1,2017-08-02T09:30:00Z,30.2513,-88.0778,2.337,4.47,1111122 
DISL,ioos:station:DISL:DISL:1,2017-08-02T10:00:00Z,30.2513,-88.0778,2.35,4.67,1111122 
DISL,ioos:station:DISL:DISL:1,2017-08-02T10:30:00Z,30.2513,-88.0778,2.372,5.08,1111122 
DISL,ioos:station:DISL:DISL:1,2017-08-02T11:00:00Z,30.2513,-88.0778,2.371,5.92,1111122 
DISL,ioos:station:DISL:DISL:1,2017-08-02T11:30:00Z,30.2513,-88.0778,2.377,6.68,1111122 
DISL,ioos:station:DISL:DISL:1,2017-08-02T12:00:00Z,30.2513,-88.0778,2.391,6.53,1111122 
DISL,ioos:station:DISL:DISL:1,2017-08-02T12:30:00Z,30.2513,-88.0778,2.398,6.74,1111122 
DISL,ioos:station:DISL:DISL:1,2017-08-02T13:00:00Z,30.2513,-88.0778,2.385,6.73,1111122 
DISL,ioos:station:DISL:DISL:1,2017-08-02T13:30:00Z,30.2513,-88.0778,2.279,6.81,1111122 
DISL,ioos:station:DISL:DISL:1,2017-08-02T14:00:00Z,30.2513,-88.0778,2.374,6.94,1111122 
DISL,ioos:station:DISL:DISL:1,2017-08-02T14:30:00Z,30.2513,-88.0778,2.351,7.63,1111122 
DISL,ioos:station:DISL:DISL:1,2017-08-02T15:00:00Z,30.2513,-88.0778,2.329,7.91,1111122 
DISL,ioos:station:DISL:DISL:1,2017-08-02T15:30:00Z,30.2513,-88.0778,2.308,8.12,1111122 
DISL,ioos:station:DISL:DISL:1,2017-08-02T16:00:00Z,30.2513,-88.0778,2.271,8.39,1111122 
DISL,ioos:station:DISL:DISL:1,2017-08-02T16:30:00Z,30.2513,-88.0778,2.259,8.66,1111122 
DISL,ioos:station:DISL:DISL:1,2017-08-02T17:00:00Z,30.2513,-88.0778,2.238,8.86,1111122 
DISL,ioos:station:DISL:DISL:1,2017-08-02T17:30:00Z,30.2513,-88.0778,2.21,8.83,1111122 
DISL,ioos:station:DISL:DISL:1,2017-08-02T18:00:00Z,30.2513,-88.0778,2.187,9.0,1111122 
DISL,ioos:station:DISL:DISL:1,2017-08-02T18:30:00Z,30.2513,-88.0778,2.169,9.18,1111122 
DISL,ioos:station:DISL:DISL:1,2017-08-02T19:00:00Z,30.2513,-88.0778,2.159,9.1,1111122 
DISL,ioos:station:DISL:DISL:1,2017-08-02T19:30:00Z,30.2513,-88.0778,2.125,8.6,1111122 
DISL,ioos:station:DISL:DISL:1,2017-08-02T20:00:00Z,30.2513,-88.0778,2.105,8.63,1111122 
DISL,ioos:station:DISL:DISL:1,2017-08-02T20:30:00Z,30.2513,-88.0778,2.099,8.8,1111122 
DISL,ioos:station:DISL:DISL:1,2017-08-02T21:00:00Z,30.2513,-88.0778,2.068,8.71,1111122 
DISL,ioos:station:DISL:DISL:1,2017-08-02T21:30:00Z,30.2513,-88.0778,2.053,8.87,1111122 
DISL,ioos:station:DISL:DISL:1,2017-08-02T22:00:00Z,30.2513,-88.0778,2.043,8.68,1111122 
DISL,ioos:station:DISL:DISL:1,2017-08-02T22:30:00Z,30.2513,-88.0778,2.037,8.99,1111122 
DISL,ioos:station:DISL:DISL:1,2017-08-02T23:00:00Z,30.2513,-88.0778,2.015,9.0,1111122 
DISL,ioos:station:DISL:DISL:1,2017-08-02T23:30:00Z,30.2513,-88.0778,2.006,8.83,1111122 
DISL,ioos:station:DISL:DISL:1,2017-08-03T00:00:00Z,30.2513,-88.0778,2.037,8.68,1111122 
DISL,ioos:station:DISL:DISL:1,2017-08-03T00:30:00Z,30.2513,-88.0778,2.031,8.3,1111122 
DISL,ioos:station:DISL:DISL:1,2017-08-03T01:00:00Z,30.2513,-88.0778,2.038,8.31,1111122 
DISL,ioos:station:DISL:DISL:1,2017-08-03T01:30:00Z,30.2513,-88.0778,2.037,7.99,1111122 
DISL,ioos:station:DISL:DISL:1,2017-08-03T02:00:00Z,30.2513,-88.0778,2.058,7.94,1111122 
DISL,ioos:station:DISL:DISL:1,2017-08-03T02:30:00Z,30.2513,-88.0778,2.077,6.99,1111122 
DISL,ioos:station:DISL:DISL:1,2017-08-03T03:00:00Z,30.2513,-88.0778,2.069,7.82,1111122 
DISL,ioos:station:DISL:DISL:1,2017-08-03T03:30:00Z,30.2513,-88.0778,2.114,8.2,1111122 
DISL,ioos:station:DISL:DISL:1,2017-08-03T04:00:00Z,30.2513,-88.0778,2.13,7.03,1111122 
DISL,ioos:station:DISL:DISL:1,2017-08-03T04:30:00Z,30.2513,-88.0778,2.156,5.37,1111122 
DISL,ioos:station:DISL:DISL:1,2017-08-03T05:00:00Z,30.2513,-88.0778,2.17,4.96,1111122 
DISL,ioos:station:DISL:DISL:1,2017-08-03T05:30:00Z,30.2513,-88.0778,2.183,4.5,1111122 
DISL,ioos:station:DISL:DISL:1,2017-08-03T06:00:00Z,30.2513,-88.0778,2.201,4.84,1111122 
DISL,ioos:station:DISL:DISL:1,2017-08-03T06:30:00Z,30.2513,-88.0778,2.252,4.66,1111122 
DISL,ioos:station:DISL:DISL:1,2017-08-03T07:00:00Z,30.2513,-88.0778,2.233,5.2,1111122 
DISL,ioos:station:DISL:DISL:1,2017-08-03T07:30:00Z,30.2513,-88.0778,2.274,5.6,1111122 
DISL,ioos:station:DISL:DISL:1,2017-08-03T08:00:00Z,30.2513,-88.0778,2.295,5.55,1111122 
DISL,ioos:station:DISL:DISL:1,2017-08-03T08:30:00Z,30.2513,-88.0778,2.32,5.39,1111122 
DISL,ioos:station:DISL:DISL:1,2017-08-03T09:00:00Z,30.2513,-88.0778,2.324,5.53,1111122 
DISL,ioos:station:DISL:DISL:1,2017-08-03T09:30:00Z,30.2513,-88.0778,2.371,5.48,1111122 
DISL,ioos:station:DISL:DISL:1,2017-08-03T10:00:00Z,30.2513,-88.0778,2.387,5.45,1111122 
DISL,ioos:station:DISL:DISL:1,2017-08-03T10:30:00Z,30.2513,-88.0778,2.388,5.42,1111122 
DISL,ioos:station:DISL:DISL:1,2017-08-03T11:00:00Z,30.2513,-88.0778,2.408,5.73,1111122 
DISL,ioos:station:DISL:DISL:1,2017-08-03T11:30:00Z,30.2513,-88.0778,2.419,6.03,1111122 
DISL,ioos:station:DISL:DISL:1,2017-08-03T12:00:00Z,30.2513,-88.0778,2.422,6.13,1111122 
DISL,ioos:station:DISL:DISL:1,2017-08-03T12:30:00Z,30.2513,-88.0778,2.429,5.65,1111122 
DISL,ioos:station:DISL:DISL:1,2017-08-03T13:00:00Z,30.2513,-88.0778,2.465,5.22,1111122 
DISL,ioos:station:DISL:DISL:1,2017-08-03T13:30:00Z,30.2513,-88.0778,2.409,5.99,1111122 
DISL,ioos:station:DISL:DISL:1,2017-08-03T14:00:00Z,30.2513,-88.0778,2.407,6.8,1111122 
DISL,ioos:station:DISL:DISL:1,2017-08-03T14:30:00Z,30.2513,-88.0778,2.447,7.06,1111122 
DISL,ioos:station:DISL:DISL:1,2017-08-03T15:00:00Z,30.2513,-88.0778,2.417,7.21,1111122 
DISL,ioos:station:DISL:DISL:1,2017-08-03T15:30:00Z,30.2513,-88.0778,2.44,7.16,1111122 
DISL,ioos:station:DISL:DISL:1,2017-08-03T16:00:00Z,30.2513,-88.0778,2.415,7.09,1111122 
DISL,ioos:station:DISL:DISL:1,2017-08-03T16:30:00Z,30.2513,-88.0778,2.37,7.03,1111122 
DISL,ioos:station:DISL:DISL:1,2017-08-03T17:00:00Z,30.2513,-88.0778,2.376,6.94,1111122 
DISL,ioos:station:DISL:DISL:1,2017-08-03T17:30:00Z,30.2513,-88.0778,2.389,6.99,1111122 
DISL,ioos:station:DISL:DISL:1,2017-08-03T18:00:00Z,30.2513,-88.0778,2.353,7.1,1111122 
DISL,ioos:station:DISL:DISL:1,2017-08-03T18:30:00Z,30.2513,-88.0778,2.332,7.2,1111122 
DISL,ioos:station:DISL:DISL:1,2017-08-03T19:00:00Z,30.2513,-88.0778,2.296,7.26,1111122 
DISL,ioos:station:DISL:DISL:1,2017-08-03T19:30:00Z,30.2513,-88.0778,2.249,7.3,1111122 
DISL,ioos:station:DISL:DISL:1,2017-08-03T20:00:00Z,30.2513,-88.0778,2.228,7.55,1111122 
DISL,ioos:station:DISL:DISL:1,2017-08-03T20:30:00Z,30.2513,-88.0778,2.191,7.55,1111122 
DISL,ioos:station:DISL:DISL:1,2017-08-03T21:00:00Z,30.2513,-88.0778,2.17,7.64,1111122 
DISL,ioos:station:DISL:DISL:1,2017-08-03T21:30:00Z,30.2513,-88.0778,2.154,7.74,1111122 
DISL,ioos:station:DISL:DISL:1,2017-08-03T22:00:00Z,30.2513,-88.0778,2.12,7.63,1111122 
DISL,ioos:station:DISL:DISL:1,2017-08-03T22:30:00Z,30.2513,-88.0778,2.098,7.68,1111122 
DISL,ioos:station:DISL:DISL:1,2017-08-03T23:00:00Z,30.2513,-88.0778,2.102,7.73,1111122 
DISL,ioos:station:DISL:DISL:1,2017-08-03T23:30:00Z,30.2513,-88.0778,2.053,7.78,1111122 
DISL,ioos:station:DISL:DISL:1,2017-08-04T00:00:00Z,30.2513,-88.0778,2.052,7.86,1111122 
DISL,ioos:station:DISL:DISL:1,2017-08-04T00:30:00Z,30.2513,-88.0778,2.055,7.43,1111122 
DISL,ioos:station:DISL:DISL:1,2017-08-04T01:00:00Z,30.2513,-88.0778,1.993,7.63,1111122 
DISL,ioos:station:DISL:DISL:1,2017-08-04T01:30:00Z,30.2513,-88.0778,2.008,7.53,1111122 
DISL,ioos:station:DISL:DISL:1,2017-08-04T02:00:00Z,30.2513,-88.0778,2.01,7.33,1111122 
DISL,ioos:station:DISL:DISL:1,2017-08-04T02:30:00Z,30.2513,-88.0778,2.023,7.19,1111122 
DISL,ioos:station:DISL:DISL:1,2017-08-04T03:00:00Z,30.2513,-88.0778,2.026,7.07,1111122 
DISL,ioos:station:DISL:DISL:1,2017-08-04T03:30:00Z,30.2513,-88.0778,2.029,6.37,1111122 
DISL,ioos:station:DISL:DISL:1,2017-08-04T04:00:00Z,30.2513,-88.0778,2.051,6.21,1111122 
DISL,ioos:station:DISL:DISL:1,2017-08-04T04:30:00Z,30.2513,-88.0778,2.082,6.21,1111122 
DISL,ioos:station:DISL:DISL:1,2017-08-04T05:00:00Z,30.2513,-88.0778,2.085,6.45,1111122 
DISL,ioos:station:DISL:DISL:1,2017-08-04T05:30:00Z,30.2513,-88.0778,2.106,6.97,1111122 
DISL,ioos:station:DISL:DISL:1,2017-08-04T06:00:00Z,30.2513,-88.0778,2.138,6.77,1111122 
DISL,ioos:station:DISL:DISL:1,2017-08-04T06:30:00Z,30.2513,-88.0778,2.143,6.15,1111122 
DISL,ioos:station:DISL:DISL:1,2017-08-04T07:00:00Z,30.2513,-88.0778,2.172,6.36,1111122 
DISL,ioos:station:DISL:DISL:1,2017-08-04T07:30:00Z,30.2513,-88.0778,2.203,5.89,1111122 
DISL,ioos:station:DISL:DISL:1,2017-08-04T08:00:00Z,30.2513,-88.0778,2.23,5.96,1111122 
DISL,ioos:station:DISL:DISL:1,2017-08-04T08:30:00Z,30.2513,-88.0778,2.273,5.51,1111122 
DISL,ioos:station:DISL:DISL:1,2017-08-04T09:00:00Z,30.2513,-88.0778,2.309,6.05,1111122 
DISL,ioos:station:DISL:DISL:1,2017-08-04T09:30:00Z,30.2513,-88.0778,2.34,6.17,1111122 
DISL,ioos:station:DISL:DISL:1,2017-08-04T10:00:00Z,30.2513,-88.0778,2.328,6.12,1111122 
DISL,ioos:station:DISL:DISL:1,2017-08-04T10:30:00Z,30.2513,-88.0778,2.362,5.74,1111122 
DISL,ioos:station:DISL:DISL:1,2017-08-04T11:00:00Z,30.2513,-88.0778,2.409,5.46,1111122 
DISL,ioos:station:DISL:DISL:1,2017-08-04T11:30:00Z,30.2513,-88.0778,2.437,5.66,1111122 
DISL,ioos:station:DISL:DISL:1,2017-08-04T12:00:00Z,30.2513,-88.0778,2.434,5.82,1111122 
DISL,ioos:station:DISL:DISL:1,2017-08-04T12:30:00Z,30.2513,-88.0778,2.459,5.27,1111122 
DISL,ioos:station:DISL:DISL:1,2017-08-04T13:00:00Z,30.2513,-88.0778,2.445,5.14,1111122 
DISL,ioos:station:DISL:DISL:1,2017-08-04T13:30:00Z,30.2513,-88.0778,2.443,5.92,1111122 
DISL,ioos:station:DISL:DISL:1,2017-08-04T14:00:00Z,30.2513,-88.0778,2.476,6.09,1111122 
DISL,ioos:station:DISL:DISL:1,2017-08-04T14:30:00Z,30.2513,-88.0778,2.442,6.05,1111122 
DISL,ioos:station:DISL:DISL:1,2017-08-04T15:00:00Z,30.2513,-88.0778,2.424,6.1,1111122 
DISL,ioos:station:DISL:DISL:1,2017-08-04T15:30:00Z,30.2513,-88.0778,2.454,5.97,1111122 
DISL,ioos:station:DISL:DISL:1,2017-08-04T16:00:00Z,30.2513,-88.0778,2.433,5.95,1111122 
DISL,ioos:station:DISL:DISL:1,2017-08-04T16:30:00Z,30.2513,-88.0778,2.372,5.93,1111122 
DISL,ioos:station:DISL:DISL:1,2017-08-04T17:00:00Z,30.2513,-88.0778,2.348,6.13,1111122 
DISL,ioos:station:DISL:DISL:1,2017-08-04T17:30:00Z,30.2513,-88.0778,2.296,6.26,1111122 
DISL,ioos:station:DISL:DISL:1,2017-08-04T18:00:00Z,30.2513,-88.0778,2.28,6.3,1111122 
DISL,ioos:station:DISL:DISL:1,2017-08-04T18:30:00Z,30.2513,-88.0778,2.238,6.29,1111122 
DISL,ioos:station:DISL:DISL:1,2017-08-04T19:00:00Z,30.2513,-88.0778,2.157,6.31,1111122 
DISL,ioos:station:DISL:DISL:1,2017-08-04T19:30:00Z,30.2513,-88.0778,2.116,6.22,1111122 
DISL,ioos:station:DISL:DISL:1,2017-08-04T20:00:00Z,30.2513,-88.0778,2.161,6.21,1111122 
DISL,ioos:station:DISL:DISL:1,2017-08-04T20:30:00Z,30.2513,-88.0778,2.079,7.66,1111122 
DISL,ioos:station:DISL:DISL:1,2017-08-04T21:00:00Z,30.2513,-88.0778,2.079,8.16,1111122 
DISL,ioos:station:DISL:DISL:1,2017-08-04T21:30:00Z,30.2513,-88.0778,2.035,6.86,1111122 
DISL,ioos:station:DISL:DISL:1,2017-08-04T22:00:00Z,30.2513,-88.0778,2.029,6.7,1111122 
DISL,ioos:station:DISL:DISL:1,2017-08-04T22:30:00Z,30.2513,-88.0778,2.019,6.62,1111122 
DISL,ioos:station:DISL:DISL:1,2017-08-04T23:00:00Z,30.2513,-88.0778,2.02,6.67,1111122 
DISL,ioos:station:DISL:DISL:1,2017-08-04T23:30:00Z,30.2513,-88.0778,2.019,7.03,1111122 
DISL,ioos:station:DISL:DISL:1,2017-08-05T00:00:00Z,30.2513,-88.0778,2.032,7.32,1111122 
DISL,ioos:station:DISL:DISL:1,2017-08-05T00:30:00Z,30.2513,-88.0778,2.029,7.47,1111122 
DISL,ioos:station:DISL:DISL:1,2017-08-05T01:00:00Z,30.2513,-88.0778,2.075,7.6,1111122 
DISL,ioos:station:DISL:DISL:1,2017-08-05T01:30:00Z,30.2513,-88.0778,2.021,7.66,1111122 
DISL,ioos:station:DISL:DISL:1,2017-08-05T02:00:00Z,30.2513,-88.0778,2.014,7.52,1111122 
DISL,ioos:station:DISL:DISL:1,2017-08-05T02:30:00Z,30.2513,-88.0778,2.039,6.38,1111122 
DISL,ioos:station:DISL:DISL:1,2017-08-05T03:00:00Z,30.2513,-88.0778,2.072,6.28,1111122 
DISL,ioos:station:DISL:DISL:1,2017-08-05T03:30:00Z,30.2513,-88.0778,2.077,6.36,1111122 
DISL,ioos:station:DISL:DISL:1,2017-08-05T04:00:00Z,30.2513,-88.0778,2.102,6.36,1111122 
DISL,ioos:station:DISL:DISL:1,2017-08-05T04:30:00Z,30.2513,-88.0778,2.103,5.77,1111122 
DISL,ioos:station:DISL:DISL:1,2017-08-05T05:00:00Z,30.2513,-88.0778,2.097,5.99,1111122 
DISL,ioos:station:DISL:DISL:1,2017-08-05T05:30:00Z,30.2513,-88.0778,2.118,5.99,1111122 
DISL,ioos:station:DISL:DISL:1,2017-08-05T06:00:00Z,30.2513,-88.0778,2.114,5.5,1111122 
DISL,ioos:station:DISL:DISL:1,2017-08-05T06:30:00Z,30.2513,-88.0778,2.132,5.32,1111122 
DISL,ioos:station:DISL:DISL:1,2017-08-05T07:00:00Z,30.2513,-88.0778,2.161,5.45,1111122 
DISL,ioos:station:DISL:DISL:1,2017-08-05T07:30:00Z,30.2513,-88.0778,2.173,5.75,1111122 
DISL,ioos:station:DISL:DISL:1,2017-08-05T08:00:00Z,30.2513,-88.0778,2.191,5.95,1111122 
DISL,ioos:station:DISL:DISL:1,2017-08-05T08:30:00Z,30.2513,-88.0778,2.21,5.89,1111122 
DISL,ioos:station:DISL:DISL:1,2017-08-05T09:00:00Z,30.2513,-88.0778,2.237,5.94,1111122 
DISL,ioos:station:DISL:DISL:1,2017-08-05T09:30:00Z,30.2513,-88.0778,2.258,5.75,1111122 
DISL,ioos:station:DISL:DISL:1,2017-08-05T10:00:00Z,30.2513,-88.0778,2.274,5.82,1111122 
DISL,ioos:station:DISL:DISL:1,2017-08-05T10:30:00Z,30.2513,-88.0778,2.298,5.82,1111122 
DISL,ioos:station:DISL:DISL:1,2017-08-05T11:00:00Z,30.2513,-88.0778,2.318,5.58,1111122 
DISL,ioos:station:DISL:DISL:1,2017-08-05T11:30:00Z,30.2513,-88.0778,2.339,5.3,1111122 
DISL,ioos:station:DISL:DISL:1,2017-08-05T12:00:00Z,30.2513,-88.0778,2.343,6.04,1111122 
DISL,ioos:station:DISL:DISL:1,2017-08-05T12:30:00Z,30.2513,-88.0778,2.37,5.93,1111122 
DISL,ioos:station:DISL:DISL:1,2017-08-05T13:00:00Z,30.2513,-88.0778,2.361,6.27,1111122 
DISL,ioos:station:DISL:DISL:1,2017-08-05T13:30:00Z,30.2513,-88.0778,2.403,6.19,1111122 
DISL,ioos:station:DISL:DISL:1,2017-08-05T14:00:00Z,30.2513,-88.0778,2.408,5.91,1111122 
DISL,ioos:station:DISL:DISL:1,2017-08-05T14:30:00Z,30.2513,-88.0778,2.413,5.89,1111122 
DISL,ioos:station:DISL:DISL:1,2017-08-05T15:00:00Z,30.2513,-88.0778,2.41,6.38,1111122 
DISL,ioos:station:DISL:DISL:1,2017-08-05T15:30:00Z,30.2513,-88.0778,2.397,6.35,1111122 
DISL,ioos:station:DISL:DISL:1,2017-08-05T16:00:00Z,30.2513,-88.0778,2.381,6.59,1111122 
DISL,ioos:station:DISL:DISL:1,2017-08-05T16:30:00Z,30.2513,-88.0778,2.338,6.8,1111122 
DISL,ioos:station:DISL:DISL:1,2017-08-05T17:00:00Z,30.2513,-88.0778,2.348,6.56,1111122 
DISL,ioos:station:DISL:DISL:1,2017-08-05T17:30:00Z,30.2513,-88.0778,2.31,7.02,1111122 
DISL,ioos:station:DISL:DISL:1,2017-08-05T18:00:00Z,30.2513,-88.0778,2.282,7.24,1111122 
DISL,ioos:station:DISL:DISL:1,2017-08-05T18:30:00Z,30.2513,-88.0778,2.256,7.41,1111122 
DISL,ioos:station:DISL:DISL:1,2017-08-05T19:00:00Z,30.2513,-88.0778,2.242,7.04,1111122 
DISL,ioos:station:DISL:DISL:1,2017-08-05T19:30:00Z,30.2513,-88.0778,2.203,7.52,1111122 
DISL,ioos:station:DISL:DISL:1,2017-08-05T20:00:00Z,30.2513,-88.0778,2.156,7.67,1111122 
DISL,ioos:station:DISL:DISL:1,2017-08-05T20:30:00Z,30.2513,-88.0778,2.126,8.95,1111122 
DISL,ioos:station:DISL:DISL:1,2017-08-05T21:00:00Z,30.2513,-88.0778,2.081,9.34,1111122 
DISL,ioos:station:DISL:DISL:1,2017-08-05T21:30:00Z,30.2513,-88.0778,2.06,9.39,1111122 
DISL,ioos:station:DISL:DISL:1,2017-08-05T22:00:00Z,30.2513,-88.0778,2.043,9.61,1111122 
DISL,ioos:station:DISL:DISL:1,2017-08-05T22:30:00Z,30.2513,-88.0778,2.015,9.41,1111122 
DISL,ioos:station:DISL:DISL:1,2017-08-05T23:00:00Z,30.2513,-88.0778,2.017,9.07,1111122 
DISL,ioos:station:DISL:DISL:1,2017-08-05T23:30:00Z,30.2513,-88.0778,2.007,9.09,1111122 
DISL,ioos:station:DISL:DISL:1,2017-08-06T00:00:00Z,30.2513,-88.0778,1.979,8.99,1111122 
DISL,ioos:station:DISL:DISL:1,2017-08-06T00:30:00Z,30.2513,-88.0778,1.973,8.76,1111122 
DISL,ioos:station:DISL:DISL:1,2017-08-06T01:00:00Z,30.2513,-88.0778,1.978,8.85,1111122 
DISL,ioos:station:DISL:DISL:1,2017-08-06T01:30:00Z,30.2513,-88.0778,1.97,8.68,1111122 
DISL,ioos:station:DISL:DISL:1,2017-08-06T02:00:00Z,30.2513,-88.0778,1.969,8.13,1111122 
DISL,ioos:station:DISL:DISL:1,2017-08-06T02:30:00Z,30.2513,-88.0778,1.972,8.06,1111122 
DISL,ioos:station:DISL:DISL:1,2017-08-06T03:00:00Z,30.2513,-88.0778,1.988,8.35,1111122 
DISL,ioos:station:DISL:DISL:1,2017-08-06T03:30:00Z,30.2513,-88.0778,1.976,8.36,1111122 
DISL,ioos:station:DISL:DISL:1,2017-08-06T04:00:00Z,30.2513,-88.0778,1.987,8.37,1111122 
DISL,ioos:station:DISL:DISL:1,2017-08-06T04:30:00Z,30.2513,-88.0778,1.999,8.03,1111122 
DISL,ioos:station:DISL:DISL:1,2017-08-06T05:00:00Z,30.2513,-88.0778,2.013,7.26,1111122 
DISL,ioos:station:DISL:DISL:1,2017-08-06T05:30:00Z,30.2513,-88.0778,2.043,6.84,1111122 
DISL,ioos:station:DISL:DISL:1,2017-08-06T06:00:00Z,30.2513,-88.0778,2.059,7.4,1111122 
DISL,ioos:station:DISL:DISL:1,2017-08-06T06:30:00Z,30.2513,-88.0778,2.072,7.1,1111122 
DISL,ioos:station:DISL:DISL:1,2017-08-06T07:00:00Z,30.2513,-88.0778,2.097,7.0,1111122 
DISL,ioos:station:DISL:DISL:1,2017-08-06T07:30:00Z,30.2513,-88.0778,2.141,7.42,1111122 
DISL,ioos:station:DISL:DISL:1,2017-08-06T08:00:00Z,30.2513,-88.0778,2.134,7.68,1111122 
DISL,ioos:station:DISL:DISL:1,2017-08-06T08:30:00Z,30.2513,-88.0778,2.163,7.54,1111122 
DISL,ioos:station:DISL:DISL:1,2017-08-06T09:00:00Z,30.2513,-88.0778,2.186,7.2,1111122 
DISL,ioos:station:DISL:DISL:1,2017-08-06T09:30:00Z,30.2513,-88.0778,2.225,6.72,1111122 
DISL,ioos:station:DISL:DISL:1,2017-08-06T10:00:00Z,30.2513,-88.0778,2.25,6.1,1111122 
DISL,ioos:station:DISL:DISL:1,2017-08-06T10:30:00Z,30.2513,-88.0778,2.285,6.22,1111122 
DISL,ioos:station:DISL:DISL:1,2017-08-06T11:00:00Z,30.2513,-88.0778,2.316,6.59,1111122 
DISL,ioos:station:DISL:DISL:1,2017-08-06T11:30:00Z,30.2513,-88.0778,2.35,6.36,1111122 
DISL,ioos:station:DISL:DISL:1,2017-08-06T12:00:00Z,30.2513,-88.0778,2.423,6.6,1111122 
DISL,ioos:station:DISL:DISL:1,2017-08-06T12:30:00Z,30.2513,-88.0778,2.401,6.82,1111122 
DISL,ioos:station:DISL:DISL:1,2017-08-06T13:00:00Z,30.2513,-88.0778,2.417,6.38,1111122 
DISL,ioos:station:DISL:DISL:1,2017-08-06T13:30:00Z,30.2513,-88.0778,2.441,6.78,1111122 
DISL,ioos:station:DISL:DISL:1,2017-08-06T14:00:00Z,30.2513,-88.0778,2.413,6.65,1111122 
DISL,ioos:station:DISL:DISL:1,2017-08-06T14:30:00Z,30.2513,-88.0778,2.412,6.62,1111122 
DISL,ioos:station:DISL:DISL:1,2017-08-06T15:00:00Z,30.2513,-88.0778,2.421,7.0,1111122 
DISL,ioos:station:DISL:DISL:1,2017-08-06T15:30:00Z,30.2513,-88.0778,2.441,7.26,1111122 